Date String (YYYY-MM-DD hh:mm:ss) UTC,Instrument flags,absolute air pressure of the measurement (hPa),sample flow rate (lpm),inlet stack bypass flow (lpm),air temperature of the measurement (°C),ambient temperature measured by the external sensor (°C),aerosol sample conditioner tube jacket temperature (°C),OPC LED temperature (°C),internal box temperature (°C),relative humidity of the measurement (%),span deviation,mass concentration of particles derived from Lorenz-Mie calculation of OPC scattering (μg/m³),mass concentration of particles derived from Lorenz-Mie calculation of OPC scattering (μg/m³),mass concentration of particles derived from Lorenz-Mie calculation of OPC scattering (μg/m³)
DateTimeUTC,F1_M11,P_M11,Q1_M11,Q2_M11,T1_M11,T2_M11,T3_M11,T4_M11,T5_M11,U1_M11,ZSPAN_M11,X2_M11,X0_M11,X1_M11
2023-08-24 13:00:00,SystemResetWarning,0834.0,5.01,000.00,028.2,024.7,000.0,036.5,029.5,32.9,0001.8,0008.11,0014.58,0007.19
2023-08-24 13:01:00,SystemResetWarning,0834.1,4.99,000.00,028.1,024.9,000.0,036.5,029.5,33.0,0001.7,0008.02,0014.13,0007.16
2023-08-24 13:02:00,SystemResetWarning,0834.1,5.00,000.00,028.1,025.2,000.0,036.5,029.5,33.1,0001.5,0007.96,0014.17,0007.13
2023-08-24 13:03:00,SystemResetWarning,0834.1,5.01,000.00,028.1,025.6,000.0,036.6,029.6,33.1,0001.4,0008.00,0014.68,0007.11
2023-08-24 13:04:00,SystemResetWarning,0834.1,4.99,000.00,028.1,025.9,000.0,036.6,029.7,33.3,0001.6,0007.94,0014.42,0007.07
2023-08-24 13:05:00,SystemResetWarning,0834.1,5.00,000.00,028.1,026.2,000.0,036.6,029.7,33.3,0001.4,0007.83,0014.25,0007.02
2023-08-24 13:06:00,SystemResetWarning,0834.1,5.01,000.00,028.2,026.4,000.0,036.6,029.8,33.5,0001.2,0007.78,0013.61,0006.97
2023-08-24 13:07:00,SystemResetWarning,0834.1,4.99,000.00,028.2,026.6,000.0,036.6,029.9,33.5,0001.0,0007.75,0013.26,0006.93
2023-08-24 13:08:00,SystemResetWarning,0834.1,5.00,000.00,028.2,026.8,000.0,036.6,029.9,33.4,0000.7,0007.71,0012.81,0006.89
2023-08-24 13:09:00,SystemResetWarning,0834.1,5.00,000.00,028.3,026.9,000.0,036.6,030.0,33.3,0000.5,0007.65,0012.48,0006.85
2023-08-24 13:10:00,SystemResetWarning,0834.1,5.00,000.00,028.3,027.1,000.0,036.7,030.0,33.1,0000.1,0007.58,0012.25,0006.82
2023-08-24 13:11:00,SystemResetWarning,0834.1,5.01,000.00,028.4,027.2,000.0,036.7,030.0,33.1,0000.2,0007.56,0011.97,0006.80
2023-08-24 13:12:00,SystemResetWarning,0834.1,4.98,000.00,028.4,026.2,000.0,036.6,029.9,33.1,0000.1,0007.52,0011.95,0006.76
2023-08-24 13:13:00,SystemResetWarning,0834.1,5.00,000.00,028.3,024.5,000.0,036.5,029.6,33.3,0000.5,0007.46,0011.99,0006.72
2023-08-24 13:14:00,SystemResetWarning,0834.0,5.01,000.00,028.1,023.8,000.0,036.4,029.3,33.3,0000.9,0007.38,0012.00,0006.70
2023-08-24 13:15:00,SystemResetWarning,0834.0,5.02,000.00,028.0,024.0,000.0,036.4,029.2,33.4,0000.9,0007.37,0011.86,0006.70
2023-08-24 13:16:00,SystemResetWarning,0834.1,4.99,000.00,027.9,024.4,000.0,036.4,029.3,33.6,0000.4,0007.43,0011.95,0006.71
2023-08-24 13:17:00,SystemResetWarning,0834.0,4.99,000.00,027.9,024.8,000.0,036.5,029.4,33.6,0000.4,0007.45,0012.04,0006.72
2023-08-24 13:18:00,SystemResetWarning,0834.0,5.00,000.00,027.9,025.2,000.0,036.5,029.5,33.5,0000.7,0007.46,0011.99,0006.73
2023-08-24 13:19:00,SystemResetWarning,0834.1,5.01,000.00,027.9,025.6,000.0,036.5,029.5,33.4,0000.5,0007.52,0012.08,0006.75
2023-08-24 13:20:00,SystemResetWarning,0834.0,5.00,000.00,028.0,025.9,000.0,036.5,029.6,33.4,0000.5,0007.58,0012.47,0006.78
2023-08-24 13:21:00,SystemResetWarning,0834.0,5.00,000.00,028.0,026.2,000.0,036.5,029.7,33.4,0000.7,0007.62,0012.77,0006.78
2023-08-24 13:22:00,SystemResetWarning,0834.1,5.00,000.00,028.1,026.4,000.0,036.5,029.7,33.7,0000.9,0007.61,0013.20,0006.79
2023-08-24 13:23:00,SystemResetWarning,0834.1,5.01,000.00,028.1,026.6,000.0,036.5,029.8,33.2,0000.7,0007.65,0013.59,0006.80
2023-08-24 13:24:00,SystemResetWarning,0834.1,5.00,000.00,028.1,026.8,000.0,036.5,029.8,32.9,0000.2,0007.74,0013.71,0006.81
2023-08-24 13:25:00,SystemResetWarning,0834.1,4.99,000.00,028.2,026.9,000.0,036.5,029.9,32.7,-000.1,0007.76,0013.34,0006.81
2023-08-24 13:26:00,SystemResetWarning,0834.1,5.00,000.00,028.2,027.0,000.0,036.6,029.9,32.6,-000.3,0007.74,0013.55,0006.80
2023-08-24 13:27:00,SystemResetWarning,0834.1,5.01,000.00,028.3,027.1,000.0,036.6,030.0,32.7,0000.1,0007.74,0013.60,0006.80
2023-08-24 13:28:00,SystemResetWarning,0834.1,5.01,000.00,028.3,026.9,000.0,036.6,030.0,32.6,0000.3,0007.72,0013.49,0006.80
2023-08-24 13:29:00,SystemResetWarning,0834.1,4.99,000.00,028.3,025.4,000.0,036.5,029.7,32.6,0000.3,0007.71,0013.66,0006.78
2023-08-24 13:30:00,SystemResetWarning,0834.0,5.00,000.00,028.1,024.1,000.0,036.4,029.4,32.1,0000.6,0007.68,0013.64,0006.78
2023-08-24 13:31:00,SystemResetWarning,0834.0,5.01,000.00,028.0,024.1,000.0,036.3,029.4,32.3,0000.9,0007.61,0013.30,0006.77
2023-08-24 13:32:00,SystemResetWarning,0834.0,5.00,000.00,028.0,024.4,000.0,036.4,029.3,33.0,0000.5,0007.60,0012.97,0006.76
2023-08-24 13:33:00,SystemResetWarning,0834.0,5.00,000.00,027.9,024.8,000.0,036.4,029.4,32.9,0000.7,0007.65,0013.28,0006.78
2023-08-24 13:34:00,SystemResetWarning,0834.1,5.00,000.00,027.9,025.2,000.0,036.4,029.4,32.8,0001.1,0007.70,0013.34,0006.81
2023-08-24 13:35:00,SystemResetWarning,0834.0,5.00,000.00,028.0,025.6,000.0,036.4,029.5,32.9,0001.4,0007.70,0013.27,0006.83
2023-08-24 13:36:00,SystemResetWarning,0834.1,5.00,000.00,028.0,025.9,000.0,036.4,029.6,32.8,0001.4,0007.73,0014.27,0006.85
2023-08-24 13:37:00,SystemResetWarning,0834.1,5.00,000.00,028.0,026.2,000.0,036.5,029.7,32.7,0001.4,0007.77,0014.49,0006.87
2023-08-24 13:38:00,SystemResetWarning,0834.1,5.00,000.00,028.1,026.4,000.0,036.5,029.7,32.9,0001.1,0007.76,0014.47,0006.88
2023-08-24 13:39:00,SystemResetWarning,0834.1,5.00,000.00,028.1,026.6,000.0,036.5,029.8,32.6,0001.0,0007.79,0014.87,0006.88
2023-08-24 13:40:00,SystemResetWarning,0834.1,5.00,000.00,028.1,026.8,000.0,036.5,029.8,32.7,0000.8,0007.81,0015.14,0006.89
2023-08-24 13:41:00,SystemResetWarning,0834.1,4.99,000.00,028.2,026.9,000.0,036.5,029.9,32.6,0000.8,0007.81,0015.44,0006.89
2023-08-24 13:42:00,SystemResetWarning,0834.1,5.00,000.00,028.2,027.0,000.0,036.6,030.0,32.9,0000.8,0007.86,0015.64,0006.89
2023-08-24 13:43:00,SystemResetWarning,0834.1,5.00,000.00,028.3,027.1,000.0,036.6,030.0,32.5,0001.1,0007.87,0015.97,0006.88
2023-08-24 13:44:00,SystemResetWarning,0834.1,4.99,000.00,028.3,026.3,000.0,036.5,029.9,32.5,0001.2,0007.84,0016.28,0006.88
2023-08-24 13:45:00,SystemResetWarning,0834.0,5.01,000.00,028.2,024.7,000.0,036.4,029.6,32.6,0001.1,0007.78,0016.01,0006.86
2023-08-24 13:46:00,SystemResetWarning,0834.0,5.01,000.00,028.1,024.2,000.0,036.3,029.4,32.3,0000.9,0007.74,0016.44,0006.85
2023-08-24 13:47:00,SystemResetWarning,0834.0,5.00,000.00,028.0,024.4,000.0,036.3,029.4,32.7,0000.7,0007.75,0016.19,0006.83
2023-08-24 13:48:00,SystemResetWarning,0834.0,5.00,000.00,028.0,024.8,000.0,036.4,029.4,33.2,0001.2,0007.76,0015.54,0006.81
2023-08-24 13:49:00,SystemResetWarning,0834.1,5.00,000.00,028.0,025.2,000.0,036.4,029.5,33.1,0001.2,0007.75,0015.97,0006.80
2023-08-24 13:50:00,SystemResetWarning,0834.1,5.00,000.00,028.0,025.6,000.0,036.4,029.6,32.7,0001.3,0007.71,0015.57,0006.78
2023-08-24 13:51:00,SystemResetWarning,0834.1,5.00,000.00,028.0,025.9,000.0,036.5,029.6,32.8,0001.4,0007.64,0015.15,0006.76
2023-08-24 13:52:00,SystemResetWarning,0834.1,5.00,000.00,028.0,026.2,000.0,036.5,029.7,32.8,0001.2,0007.63,0014.76,0006.75
2023-08-24 13:53:00,SystemResetWarning,0834.1,5.00,000.00,028.1,026.4,000.0,036.5,029.8,32.6,0000.8,0007.57,0014.48,0006.73
2023-08-24 13:54:00,SystemResetWarning,0834.1,5.00,000.00,028.1,026.6,000.0,036.5,029.8,32.1,0000.8,0007.52,0014.24,0006.72
2023-08-24 13:55:00,SystemResetWarning,0834.2,5.00,000.00,028.2,026.8,000.0,036.5,029.9,31.9,0000.7,0007.43,0013.37,0006.66
2023-08-24 13:56:00,SystemResetWarning,0834.2,4.98,000.00,028.2,027.0,000.0,036.6,029.9,31.8,0000.8,0007.42,0013.18,0006.62
2023-08-24 13:57:00,SystemResetWarning,0834.2,4.99,000.00,028.2,027.1,000.0,036.6,030.0,31.9,0001.1,0007.38,0012.56,0006.58
2023-08-24 13:58:00,SystemResetWarning,0834.2,5.00,000.00,028.3,026.8,000.0,036.5,030.0,32.0,0001.3,0007.28,0012.09,0006.51
2023-08-24 13:59:00,SystemResetWarning,0834.2,5.01,000.00,028.2,025.3,000.0,036.4,029.7,32.2,0001.3,0007.18,0011.66,0006.47
